TimeEST,TemperatureF,Dew PointF,Humidity,Sea Level PressureIn,VisibilityMPH,Wind Direction,Wind SpeedMPH,Gust SpeedMPH,PrecipitationIn,Events,Conditions,WindDirDegrees,DateUTC
12:55 AM,28.8,26.4,91,30.43,10.0,South,3.5,-,N/A,,Clear,180,2013-01-08 05:55:00
1:55 AM,29.5,26.8,90,30.41,10.0,SSE,3.5,-,N/A,,Clear,160,2013-01-08 06:55:00
2:55 AM,30.6,26.6,85,30.41,10.0,South,3.5,-,N/A,,Clear,170,2013-01-08 07:55:00
3:55 AM,29.3,26.2,88,30.40,10.0,South,5.8,-,N/A,,Clear,170,2013-01-08 08:55:00
4:55 AM,32.2,29.3,89,30.40,10.0,South,3.5,-,N/A,,Clear,190,2013-01-08 09:55:00
5:55 AM,30.7,29.5,95,30.42,10.0,SSW,5.8,-,N/A,,Clear,210,2013-01-08 10:55:00
6:55 AM,30.7,29.3,94,30.43,10.0,South,4.6,-,N/A,,Clear,190,2013-01-08 11:55:00
7:55 AM,31.6,30.6,96,30.45,10.0,South,4.6,-,N/A,,Clear,190,2013-01-08 12:55:00
8:55 AM,37.2,35.8,95,30.45,10.0,South,8.1,-,N/A,,Clear,190,2013-01-08 13:55:00
9:55 AM,42.3,35.2,76,30.43,10.0,South,9.2,-,N/A,,Clear,180,2013-01-08 14:55:00
10:55 AM,47.3,33.6,59,30.43,10.0,SSW,9.2,-,N/A,,Clear,200,2013-01-08 15:55:00
11:55 AM,50.9,33.3,51,30.39,10.0,South,12.7,-,N/A,,Clear,190,2013-01-08 16:55:00
12:55 PM,50.9,33.4,51,30.38,10.0,SSW,11.5,-,N/A,,Partly Cloudy,200,2013-01-08 17:55:00
1:55 PM,52.7,33.1,47,30.37,10.0,SSW,8.1,-,N/A,,Clear,210,2013-01-08 18:55:00
2:55 PM,52.3,32.2,46,30.38,10.0,SW,11.5,-,N/A,,Clear,220,2013-01-08 19:55:00
3:55 PM,51.1,31.8,48,30.39,10.0,WSW,6.9,-,N/A,,Clear,250,2013-01-08 20:55:00
4:55 PM,48.4,31.8,53,30.39,10.0,SSW,4.6,-,N/A,,Mostly Cloudy,210,2013-01-08 21:55:00
5:55 PM,47.7,32.2,55,30.40,10.0,SSW,3.5,-,N/A,,Overcast,200,2013-01-08 22:55:00
6:55 PM,46.2,33.6,61,30.39,10.0,SSE,3.5,-,N/A,,Overcast,150,2013-01-08 23:55:00
7:55 PM,45.1,34.2,65,30.40,10.0,SSE,4.6,-,N/A,,Overcast,150,2013-01-09 00:55:00
8:55 PM,45.5,35.2,67,30.38,10.0,South,3.5,-,N/A,,Overcast,170,2013-01-09 01:55:00
9:55 PM,46.2,34.2,63,30.40,10.0,Calm,Calm,-,N/A,,Overcast,0,2013-01-09 02:55:00
10:55 PM,45.7,33.8,63,30.40,10.0,Calm,Calm,-,N/A,,Overcast,0,2013-01-09 03:55:00
11:55 PM,43.5,34.7,71,30.39,10.0,SSW,3.5,-,N/A,,Overcast,200,2013-01-09 04:55:00